Theta_e
284 284 284 283 282 282 283 283 284 283 284 283 281 282 284 284 279 277 283 284 282 283 285 281 280 281 282 280 279 280 280 280 280 279 278 279 279 280 280 281 281 281 281 281 282 282 283 284 284 285 285 285 285 285 284 284 284 284 285 284 284 284 284 284 285 285 285 285 285 285 285 285 285 285 285 286 286 286 286 286 286 285 285 285 284 284 284
282 282 281 281 281 281 281 281 281 282 282 282 282 282 282 282 281 282 282 283 282 285 281 280 279 281 282 281 281 280 279 279 279 278 278 278 279 280 281 281 282 282 282 282 282 283 283 284 284 284 284 284 284 284 283 283 283 284 285 284 284 283 284 284 285 285 285 284 285 285 285 285 285 285 285 285 285 285 285 285 285 285 285 284 284 284 283
277 280 281 280 279 279 277 279 280 281 281 281 281 281 281 281 280 282 281 281 281 282 281 280 281 281 281 281 280 279 279 279 279 278 277 278 278 280 281 281 281 282 282 282 282 282 283 283 284 284 284 284 283 283 283 282 283 284 284 284 283 283 283 284 285 285 284 284 284 284 284 284 285 284 284 284 284 284 284 284 284 284 284 284 284 284 284
274 279 278 278 278 277 276 276 278 278 278 277 279 278 281 279 278 279 279 277 278 277 279 278 280 278 278 277 278 280 280 279 279 277 277 278 278 279 279 280 281 281 281 281 282 282 282 283 284 284 283 283 283 282 282 281 282 283 283 283 283 283 284 284 284 284 284 284 284 284 284 284 284 284 283 283 283 283 283 283 283 283 283 283 284 283 283
272 277 277 275 273 272 270 271 275 277 277 278 279 281 281 281 280 277 275 276 277 277 280 276 278 278 278 278 279 277 279 280 279 277 277 279 279 279 280 280 281 281 282 282 282 282 282 283 283 283 282 281 281 281 280 281 282 282 282 282 282 282 283 283 284 284 284 283 283 283 284 284 283 283 282 282 282 282 282 283 283 283 283 283 283 283 283
270 274 270 271 268 263 265 275 277 277 276 276 275 276 278 278 278 275 277 276 277 276 277 276 276 276 276 278 279 280 280 280 279 278 278 279 280 280 280 280 281 281 281 281 281 281 282 282 282 282 282 281 281 281 280 281 281 281 281 281 281 281 282 282 283 283 283 283 283 283 283 283 283 282 282 282 282 282 282 282 282 282 282 282 282 282 283
268 266 264 267 262 264 273 275 276 276 276 277 277 276 275 276 277 278 278 278 277 277 275 276 277 278 278 280 280 280 281 281 280 278 279 279 279 280 280 279 279 279 280 279 280 280 281 282 282 282 281 281 280 279 279 279 280 280 280 280 280 280 281 281 281 281 282 283 283 283 282 282 282 281 282 282 282 282 282 282 282 282 282 282 282 282 282
264 268 268 261 260 270 272 276 277 277 276 275 273 274 276 274 275 277 276 279 278 279 278 280 281 279 280 280 280 281 281 282 280 279 279 279 280 280 280 280 281 281 281 280 280 281 282 282 282 281 280 280 279 278 278 278 279 279 279 278 279 279 279 280 280 280 281 282 283 282 282 281 281 281 281 282 282 282 281 281 281 281 281 281 281 281 281
264 266 265 266 271 271 274 273 275 274 273 272 270 265 273 275 272 276 276 279 279 279 279 279 280 280 280 278 279 281 281 282 281 280 279 280 280 281 281 281 281 282 281 280 281 281 280 280 280 279 279 278 277 276 276 277 277 277 277 277 277 278 278 278 278 279 280 282 281 281 280 280 280 280 280 281 281 282 280 280 280 280 280 280 280 280 280
273 265 266 267 265 262 265 271 274 276 275 275 277 274 271 275 271 274 276 278 279 279 279 279 279 279 276 273 274 279 280 281 281 280 281 281 281 281 281 281 280 280 280 280 280 280 279 279 279 278 276 275 274 274 274 275 275 275 275 275 276 276 276 277 277 277 279 281 280 279 278 278 278 279 279 280 281 281 280 279 279 279 279 279 279 279 279
273 270 267 266 265 267 273 271 272 272 274 275 276 272 267 272 267 269 275 277 277 278 277 277 276 272 266 269 273 276 278 277 277 277 277 277 278 278 278 278 277 277 277 277 278 277 277 277 278 277 274 273 273 273 273 273 274 273 274 274 275 274 275 275 275 276 278 279 278 277 276 276 276 276 277 279 280 280 279 279 279 279 278 278 278 278 278
270 269 268 265 270 264 269 269 270 271 274 277 271 263 265 270 271 272 273 274 274 274 276 276 273 271 267 270 274 277 276 278 277 276 277 276 276 277 277 277 276 276 277 276 275 275 275 276 276 274 272 272 272 273 273 273 272 272 272 273 274 274 273 273 273 275 277 276 275 274 273 273 274 275 277 278 279 279 279 279 278 278 278 278 277 277 278
270 272 268 270 268 275 273 274 275 273 275 272 261 262 265 271 270 272 273 274 275 275 275 275 270 275 277 277 279 277 275 274 275 276 276 276 276 276 276 276 278 276 275 275 275 275 275 275 274 272 271 271 271 271 272 271 271 272 273 273 272 272 272 271 272 273 273 272 271 271 271 272 273 274 276 277 278 278 278 279 278 277 276 276 276 276 277
268 267 265 266 267 271 273 274 275 275 271 260 263 270 272 270 274 272 274 274 276 276 276 276 276 277 278 279 278 276 276 276 276 276 276 276 275 275 275 276 275 274 273 273 272 273 273 273 273 271 269 270 270 270 270 270 271 272 272 271 271 270 270 271 271 270 269 269 269 269 270 271 271 272 274 275 276 277 278 277 277 276 276 275 275 275 275
263 264 263 264 261 269 268 271 271 273 265 266 271 271 273 274 273 272 272 275 275 276 276 277 277 277 277 277 277 277 277 276 276 276 276 276 276 276 275 275 274 272 272 273 273 273 273 272 271 270 267 268 269 269 269 270 270 270 270 269 269 269 269 268 268 267 267 267 267 268 268 269 270 270 271 272 274 276 276 276 276 275 275 276 275 274 274
263 262 261 261 267 273 273 270 264 267 272 274 276 275 274 276 275 273 274 273 275 275 276 276 276 277 276 277 277 277 277 277 276 275 275 275 275 274 274 273 273 270 271 271 272 272 272 272 270 269 267 267 268 268 268 270 269 268 267 267 267 266 266 266 265 265 265 266 266 267 267 268 268 269 269 271 273 275 276 276 275 275 276 275 275 274 274
265 261 265 270 271 272 274 273 274 276 277 277 276 275 274 274 274 274 273 275 275 275 275 275 276 275 276 277 277 277 277 276 275 275 275 274 273 273 272 272 272 270 270 270 270 270 271 271 270 269 266 266 267 267 268 268 267 267 266 265 265 264 264 264 264 264 264 264 265 265 266 266 266 268 269 270 272 274 275 275 275 275 275 275 274 274 274
273 273 274 276 272 273 276 277 277 277 277 278 276 274 274 274 275 275 274 274 275 275 275 274 274 275 276 276 277 276 274 274 273 273 273 272 272 272 271 271 271 270 269 269 268 268 269 269 269 269 268 266 265 267 268 267 266 265 264 263 263 263 263 263 263 263 263 263 263 264 265 266 266 267 268 270 271 273 275 275 275 274 274 275 275 274 274
269 265 275 273 274 275 275 275 277 277 277 276 275 274 274 275 275 274 274 274 274 275 274 274 274 275 275 273 273 272 271 271 271 271 271 271 271 270 270 270 269 268 268 267 267 267 267 268 268 268 267 267 267 267 266 266 265 264 262 262 262 262 262 262 262 262 261 262 262 263 264 265 266 268 269 270 272 273 274 274 275 274 274 274 275 274 274
269 269 274 275 275 275 276 276 276 276 277 277 275 275 275 274 274 273 274 272 272 272 271 271 270 271 271 269 269 269 270 270 270 270 270 269 269 270 269 269 268 267 266 266 266 266 266 267 267 267 266 266 266 265 265 264 262 262 261 261 261 260 261 261 261 261 260 262 262 262 263 264 264 266 268 269 270 271 273 274 274 274 274 274 274 274 274
272 274 275 275 276 275 276 277 277 277 277 276 276 276 273 271 270 270 270 271 271 270 269 268 268 267 268 268 268 268 268 268 269 269 269 268 268 268 267 267 267 266 265 265 265 264 265 266 266 265 264 264 264 264 264 262 261 260 260 260 260 259 259 260 259 260 260 260 261 261 262 263 265 266 267 268 270 271 273 275 275 275 275 275 275 275 275
268 269 272 274 266 268 274 275 275 275 274 274 273 271 270 268 268 267 267 268 268 268 268 267 267 265 267 267 267 267 267 267 267 267 267 266 266 266 266 266 265 264 264 264 263 263 263 264 263 263 262 262 262 262 261 260 260 259 259 259 258 258 258 258 258 259 259 260 260 261 261 262 263 264 268 272 272 271 271 275 278 279 280 277 277 277 276
269 274 275 276 275 274 276 276 276 271 270 271 271 270 268 266 266 266 265 265 266 266 267 267 266 265 266 266 266 265 265 265 266 266 265 264 264 264 264 263 263 262 262 261 261 260 260 261 260 260 260 260 260 260 260 259 259 258 258 257 257 257 258 258 258 259 259 259 259 260 261 262 263 264 265 269 274 276 276 277 277 279 280 281 282 282 279
276 277 277 277 275 274 276 277 271 266 266 267 267 266 266 266 265 265 265 265 264 264 265 265 266 265 265 265 264 263 264 264 264 263 264 263 263 262 262 261 260 259 259 259 258 258 259 258 258 258 257 258 258 258 258 258 258 257 257 257 256 257 257 257 258 258 259 259 259 260 261 262 264 265 265 264 264 269 273 274 277 279 279 281 282 282 283
275 278 277 277 277 276 273 269 265 265 265 266 265 265 265 265 265 265 263 264 264 264 263 263 264 264 263 263 263 262 262 262 262 262 262 261 261 260 259 258 257 257 257 257 257 257 257 256 256 256 256 256 257 257 258 258 257 257 257 257 256 256 257 257 258 258 259 259 259 260 261 263 263 262 262 262 261 262 265 270 272 275 278 280 281 282 283
278 278 277 273 269 271 270 267 266 263 264 264 264 264 265 264 264 263 262 262 262 263 262 262 262 263 263 261 261 261 260 260 260 260 259 258 257 257 256 256 256 257 256 256 256 256 255 255 256 256 256 256 257 257 258 258 257 257 257 257 257 257 257 257 258 258 259 259 260 260 261 260 260 260 260 261 261 262 262 265 269 274 278 279 280 281 282
267 266 268 271 272 273 264 267 269 264 263 264 263 263 263 262 262 261 261 261 260 261 260 261 261 261 259 259 259 259 258 258 258 257 256 256 255 255 256 256 256 255 255 255 255 255 256 256 256 256 256 256 257 257 257 257 257 257 256 257 257 258 259 259 258 258 259 259 259 259 259 259 259 259 260 261 262 262 263 265 268 270 273 275 278 280 279
264 263 267 271 273 271 264 263 263 263 263 262 261 261 260 260 258 256 256 259 259 258 260 258 258 257 257 258 256 256 256 255 255 255 254 254 255 255 255 255 255 255 255 255 255 255 255 255 255 255 255 256 257 257 257 257 257 256 256 256 257 257 257 258 258 258 258 258 258 258 258 259 259 260 261 262 262 263 265 266 268 271 273 275 275 278 280
262 261 262 262 262 262 262 262 261 261 260 261 260 259 257 256 256 257 257 258 259 258 257 257 256 256 256 256 255 254 254 254 253 253 254 254 255 255 255 255 255 255 255 255 255 255 255 255 255 255 256 257 257 257 257 257 257 257 257 257 257 257 257 257 257 258 258 258 258 259 260 260 260 260 260 261 262 262 264 265 268 271 272 274 274 274 277
260 261 259 260 261 260 261 261 260 259 259 259 257 256 257 256 256 256 257 257 257 255 256 256 255 255 255 254 254 253 253 253 253 254 254 254 254 255 255 255 255 255 255 255 255 255 255 255 255 255 256 257 257 257 257 256 256 256 256 256 256 256 257 257 257 257 257 258 258 259 259 259 260 260 260 261 262 264 265 266 268 269 271 272 274 273 273
258 258 257 259 259 259 259 259 258 258 258 256 256 255 256 255 254 255 255 256 255 255 255 254 253 253 253 253 253 253 253 253 253 253 253 254 254 255 255 255 254 254 254 254 254 255 254 254 254 255 256 256 256 256 256 256 256 256 256 256 256 257 258 259 260 258 258 259 259 259 260 261 261 261 262 262 262 262 263 263 264 265 269 271 272 272 273
255 255 255 258 258 257 256 256 256 256 256 255 253 252 254 253 252 252 253 253 253 253 253 252 252 252 252 252 252 252 252 252 253 253 253 254 255 256 257 256 255 255 254 254 254 254 254 254 253 254 255 256 256 256 256 256 256 256 255 256 256 256 257 258 258 258 258 258 259 259 259 259 259 260 260 260 261 261 262 262 263 265 267 269 271 272 273
257 259 258 257 256 256 255 255 255 253 254 253 254 254 253 253 253 253 253 253 253 252 252 252 252 252 252 252 252 252 252 252 253 254 254 255 256 257 256 256 255 254 254 254 254 254 254 254 254 256 256 256 256 256 256 256 256 256 256 256 256 257 257 258 258 258 259 259 259 259 260 260 260 261 261 262 263 264 264 264 266 267 268 270 271 272 273
258 258 257 255 255 257 256 254 253 253 253 253 253 253 253 252 252 252 252 252 251 251 251 252 252 252 252 252 251 251 252 253 253 254 255 256 256 256 255 255 255 254 254 255 255 255 255 255 256 256 256 256 256 257 257 257 257 257 257 257 257 257 257 257 258 258 258 258 259 260 260 260 261 261 262 262 263 264 266 267 268 268 269 270 271 272 273
254 254 254 254 253 253 253 252 251 251 251 251 251 250 251 251 250 251 251 251 251 251 252 252 252 252 251 251 251 252 253 253 254 255 255 256 255 255 255 254 254 254 254 255 256 256 256 256 256 256 256 257 257 257 258 258 258 258 258 258 258 258 258 258 258 258 258 258 259 258 259 259 260 261 261 262 262 263 263 265 267 268 269 270 270 271 272
252 251 250 250 250 249 249 249 250 249 250 249 250 250 250 250 250 250 250 251 252 252 252 252 251 251 250 251 252 252 253 254 255 256 255 255 254 254 254 253 254 254 254 255 257 257 257 257 257 257 257 257 258 258 258 258 259 259 259 259 259 259 259 258 258 258 259 259 259 259 259 260 261 261 262 262 263 264 266 267 268 269 269 270 270 271 271
251 250 249 250 249 249 248 248 249 250 249 249 250 249 249 249 250 250 251 251 251 251 251 251 250 250 250 252 253 254 255 256 256 255 254 254 254 253 253 253 254 254 254 254 256 257 256 257 257 258 257 257 257 257 258 259 259 259 260 260 260 260 260 260 260 259 259 260 260 260 261 261 261 262 263 263 263 264 266 267 268 269 269 270 270 270 269
250 251 249 249 249 248 249 248 248 248 248 247 248 249 249 249 250 250 249 250 250 250 251 250 250 251 252 253 254 254 255 255 255 254 254 253 253 252 253 254 254 254 254 254 256 256 256 257 257 257 256 256 257 257 258 259 260 260 260 259 260 260 260 261 261 262 262 261 261 261 261 261 261 262 263 265 266 267 267 268 268 268 267 265 265 265 264
250 250 250 249 248 249 248 249 248 247 247 247 248 248 249 249 250 249 249 250 250 250 250 250 251 252 252 253 253 254 255 254 254 253 253 252 253 252 252 253 254 255 256 256 256 256 257 257 257 256 256 256 257 257 258 259 260 260 259 259 259 260 260 261 261 261 262 263 263 262 262 263 263 264 265 266 266 266 265 265 264 264 264 263 263 262 262
249 249 248 248 248 248 248 250 248 248 248 248 248 248 249 249 249 249 249 249 250 251 250 251 251 251 252 253 254 254 254 254 254 253 252 252 252 252 253 254 254 255 256 256 256 256 257 257 256 255 256 256 257 257 258 259 259 259 259 259 259 259 260 260 260 260 261 261 261 262 262 262 263 263 263 263 263 263 263 262 262 261 261 261 261 261 260
249 249 249 249 249 249 249 249 249 249 248 248 248 248 250 249 250 249 248 248 249 249 249 250 251 252 253 254 254 254 254 254 253 253 252 251 252 252 252 253 255 255 255 256 256 256 256 256 255 255 255 256 256 258 257 258 258 258 258 258 258 259 259 259 259 260 260 260 260 260 261 261 261 261 261 261 261 261 261 260 260 260 260 259 259 259 259
249 249 249 249 249 249 249 249 249 249 248 248 248 249 249 249 249 248 248 248 248 249 250 251 253 254 255 255 254 254 253 253 253 252 251 250 251 251 251 253 255 254 256 256 256 256 255 254 255 256 255 256 256 257 258 257 257 257 257 257 257 258 258 258 258 259 259 260 260 260 260 260 260 260 260 260 260 260 259 259 259 259 259 259 259 259 259
247 246 247 247 248 248 247 248 248 248 248 249 248 248 248 247 247 247 247 248 249 249 251 252 254 255 255 254 253 253 252 253 252 252 253 252 252 250 251 253 254 254 256 256 255 254 254 254 254 255 256 256 256 257 257 256 255 255 256 256 257 257 257 257 258 258 258 258 258 258 259 259 259 259 259 258 258 258 258 258 258 258 258 258 258 258 258
247 247 248 248 248 249 249 249 249 248 247 247 249 247 247 247 247 247 248 248 249 251 252 253 254 254 254 254 253 252 252 252 252 252 252 253 255 254 252 254 254 255 256 255 254 254 253 254 254 255 256 256 256 256 255 254 254 254 254 255 255 255 256 256 256 257 257 257 257 257 257 258 258 258 257 257 257 257 258 258 258 258 258 258 258 258 257
248 248 248 247 247 246 247 248 247 247 248 248 248 247 247 246 247 247 248 249 250 252 254 255 255 255 254 254 253 253 253 253 252 252 251 252 252 253 254 254 254 254 255 255 254 253 253 253 255 255 255 255 255 255 253 253 253 254 253 253 254 254 254 255 255 256 256 256 256 257 257 257 257 257 257 257 257 257 257 257 257 257 257 257 257 257 257
247 248 247 248 246 246 247 247 248 247 247 246 245 246 247 247 247 248 249 250 251 253 254 255 255 255 255 254 254 253 253 253 252 250 250 249 248 251 253 254 253 254 255 254 253 252 252 254 255 255 255 254 254 253 252 253 253 252 252 252 253 253 254 254 254 254 255 255 255 255 256 256 256 256 256 256 256 256 256 256 256 256 256 256 256 256 256
246 245 245 244 245 245 245 245 244 244 244 242 243 244 248 248 250 251 252 254 255 255 255 255 255 255 256 254 253 252 251 252 252 250 248 248 252 253 253 254 254 254 254 253 252 252 252 253 254 254 254 253 253 251 251 252 251 251 251 252 252 252 253 253 253 253 254 254 255 255 255 255 255 255 255 255 255 255 255 255 255 255 256 256 256 255 255
244 244 245 244 244 244 244 243 240 241 241 243 245 247 249 250 251 253 255 255 256 256 255 255 254 254 254 254 253 253 252 250 251 252 250 252 252 251 251 251 253 254 254 253 252 253 253 253 253 253 253 253 251 251 251 251 251 251 251 251 251 251 251 251 252 252 252 253 253 253 253 253 254 254 254 254 254 255 255 255 254 254 254 254 254 254 254
243 243 244 244 243 243 242 243 243 246 246 247 246 249 251 252 253 255 255 255 255 255 255 255 254 254 253 254 254 254 253 253 252 251 253 253 252 252 252 253 253 253 252 251 250 250 252 253 252 253 252 252 250 250 250 250 250 251 250 250 250 250 250 250 251 251 251 251 252 252 252 252 252 252 252 253 253 253 253 253 253 253 253 253 253 253 253
244 243 244 245 244 245 244 244 246 246 247 249 250 252 253 254 254 254 255 255 255 255 255 255 254 254 254 254 254 253 252 252 253 253 252 252 251 252 252 251 251 253 252 251 250 250 251 252 251 252 251 250 250 251 250 250 250 250 250 250 250 250 250 251 251 251 250 250 250 250 251 251 251 252 252 252 252 252 252 252 252 252 252 251 251 251 251
244 245 245 246 246 247 246 247 249 250 251 253 254 255 255 255 255 255 255 255 255 254 254 254 255 255 254 254 254 254 252 251 252 253 253 252 252 252 252 252 251 252 251 251 250 250 250 250 250 251 251 250 250 250 250 250 250 250 250 250 250 249 249 250 249 249 249 249 249 249 249 249 249 249 249 250 250 250 250 251 251 251 251 250 250 250 250
245 245 247 248 248 248 249 251 252 254 255 255 255 255 255 255 255 255 255 256 255 254 254 253 253 254 255 254 254 254 253 253 252 252 253 252 252 251 251 252 251 251 250 249 250 249 250 250 250 250 251 250 250 249 250 251 250 250 250 250 250 249 249 249 249 249 249 248 248 248 248 248 248 248 248 248 248 248 248 248 248 248 249 249 249 249 250
Wind_Speed
9 11 11 5 5 4 6 8 9 11 11 12 15 18 16 12 14 20 15 15 17 15 10 3 3 3 2 3 2 1 0 1 1 2 5 6 6 7 8 8 7 6 7 7 9 9 8 9 10 11 11 11 11 10 9 9 9 11 11 11 11 11 11 11 11 11 10 10 10 12 13 13 13 12 10 10 11 10 9 10 9 10 11 12 12 13 13
6 9 9 7 9 9 10 10 11 12 14 17 17 16 14 15 17 16 16 17 20 15 2 5 4 2 2 3 2 1 1 2 2 2 4 4 5 6 7 8 7 6 7 6 6 7 8 8 9 9 9 10 11 11 12 12 11 10 9 10 11 12 12 11 10 10 9 9 10 10 11 12 13 13 13 11 9 9 10 11 10 10 10 11 12 13 13
8 8 9 9 9 10 12 10 10 13 16 19 17 19 19 19 17 16 19 19 18 4 4 6 5 1 1 2 2 3 2 2 2 3 5 4 5 6 6 7 7 7 8 8 8 8 8 8 9 9 8 8 8 8 9 11 11 11 10 10 10 9 11 11 11 11 11 11 10 11 10 11 11 12 13 12 11 11 9 9 10 11 11 12 12 12 13
9 8 11 11 11 13 10 11 16 21 21 17 15 16 14 12 14 15 10 10 7 4 3 2 4 1 0 1 3 3 4 2 2 4 5 6 6 6 5 6 7 7 8 8 9 10 9 8 8 8 9 9 9 9 10 11 11 10 10 10 10 10 10 9 10 11 12 13 13 13 11 11 11 11 12 12 12 11 10 10 9 9 11 12 12 13 12
11 11 7 3 3 9 14 15 20 20 19 18 18 15 13 13 4 10 12 10 2 4 3 3 2 2 3 2 5 4 4 3 2 3 4 5 6 6 6 7 8 8 9 9 9 10 9 8 7 7 6 7 8 8 10 11 10 11 11 11 11 11 10 9 10 9 10 11 12 12 12 12 11 10 10 11 12 12 12 10 9 9 11 12 12 12 13
8 11 3 1 4 14 17 6 1 5 11 7 10 11 9 5 2 2 1 4 4 2 2 1 3 4 5 3 4 4 4 6 4 5 5 7 7 6 6 6 7 7 7 7 7 8 9 8 7 6 5 6 6 6 8 9 10 10 11 12 12 12 11 9 10 10 10 10 11 11 11 12 12 11 11 10 10 9 10 10 9 10 10 11 12 12 13
8 2 4 8 13 16 6 1 2 1 3 4 9 4 2 2 2 5 6 5 4 4 2 6 7 7 6 5 5 8 5 5 6 5 6 8 8 9 8 8 7 7 8 7 7 7 7 7 7 6 7 6 7 8 8 10 9 9 10 10 11 11 11 12 11 11 11 11 11 11 11 11 12 12 12 11 11 9 8 9 10 11 10 11 11 11 12
3 1 4 6 9 1 5 6 2 2 3 1 5 2 4 1 1 1 3 4 3 4 6 6 7 6 6 4 6 9 8 8 8 4 6 8 7 8 8 9 10 8 8 8 8 8 6 6 7 6 7 6 7 9 9 9 9 8 8 9 10 10 10 11 11 12 13 13 12 11 12 12 12 12 12 12 12 11 9 8 8 8 10 9 11 12 12
7 5 8 13 8 16 14 11 2 3 1 1 2 3 2 8 3 2 3 3 5 6 7 8 6 4 1 4 8 10 10 10 8 7 7 7 8 8 8 8 9 9 7 7 8 7 7 7 7 7 6 5 7 9 10 9 8 9 8 9 10 10 10 11 11 12 13 12 13 13 13 13 14 13 13 13 12 9 9 9 9 9 10 10 10 11 11
7 4 7 6 5 8 4 2 5 3 2 1 2 5 5 5 5 3 4 4 6 7 7 6 5 1 2 6 7 5 8 9 9 7 7 7 8 8 9 8 7 7 7 6 7 7 8 10 9 6 4 5 7 7 8 7 8 9 8 9 10 9 10 10 12 12 12 11 12 14 14 14 15 15 14 13 12 9 9 11 10 10 9 9 10 10 11
5 6 8 8 8 6 4 5 3 3 2 1 1 4 5 3 3 5 7 8 7 6 6 8 1 1 3 8 9 7 7 9 7 7 7 7 8 9 8 8 8 7 7 7 7 7 7 10 10 5 5 5 7 9 9 8 7 9 9 10 10 10 11 11 12 12 12 11 11 13 14 15 14 16 16 14 13 11 10 9 11 9 8 9 10 9 10
7 7 8 10 3 2 2 5 3 4 2 1 2 8 6 3 6 6 7 9 8 7 6 6 4 6 7 9 11 8 9 11 9 7 8 7 8 9 9 7 7 6 7 6 8 9 10 11 8 6 4 5 7 9 10 8 9 9 9 10 9 9 11 12 11 12 10 10 11 12 14 16 16 15 14 13 13 12 11 9 10 9 8 9 11 11 9
12 16 11 7 5 3 2 6 6 3 2 2 2 12 4 5 9 6 6 9 9 7 6 5 5 9 11 12 13 9 5 4 7 9 8 9 7 8 8 9 6 5 6 7 10 11 10 9 7 5 5 6 10 10 10 10 11 10 10 9 9 10 11 12 12 11 9 10 13 14 14 14 15 14 14 14 14 14 13 11 10 10 10 10 10 11 9
9 7 8 9 5 5 5 5 6 3 4 2 9 2 4 2 5 3 8 7 9 7 8 7 8 10 11 11 10 10 11 11 9 7 7 7 7 7 7 7 6 5 6 8 10 11 11 9 8 5 5 8 10 9 9 12 11 9 9 9 9 9 12 12 11 11 13 13 13 13 14 13 14 16 15 14 15 15 12 12 13 13 11 9 9 10 9
1 1 5 6 8 2 5 4 2 1 4 7 4 2 5 3 5 5 4 7 8 7 7 9 10 10 11 11 12 13 13 12 11 9 8 8 9 10 10 9 6 3 7 12 13 14 12 8 4 4 4 8 10 10 12 13 9 8 7 8 9 11 12 12 13 13 13 14 15 13 14 14 14 16 16 15 16 15 14 13 13 14 13 10 10 10 9
6 4 6 5 5 4 4 3 2 2 7 3 6 6 10 8 4 4 4 6 7 6 7 9 9 10 10 11 12 13 13 13 10 8 7 7 7 8 7 7 9 5 8 10 13 15 14 10 5 4 5 9 11 12 16 10 7 7 7 9 9 11 12 13 13 14 14 15 14 13 14 14 15 16 17 16 14 13 13 12 12 12 11 10 9 10 10
4 6 6 5 2 2 4 5 6 8 10 10 7 5 6 7 7 3 4 7 7 6 7 8 9 10 11 13 13 13 13 10 8 9 8 8 9 10 10 12 10 7 10 13 14 15 15 14 11 6 5 9 12 16 14 6 8 8 9 10 11 13 14 14 14 13 13 13 14 14 14 13 14 15 16 15 14 13 12 11 11 12 12 10 10 11 10
4 6 13 11 1 5 11 8 8 9 11 10 5 3 5 6 8 5 6 6 7 8 6 6 7 9 12 13 13 9 6 7 9 9 9 10 10 11 11 10 9 8 10 12 13 16 17 16 13 8 8 7 13 15 10 7 8 7 9 12 14 16 15 15 15 14 16 16 15 14 15 12 12 13 13 14 13 13 12 11 12 11 12 11 10 11 10
6 9 10 6 10 9 7 9 11 9 7 8 4 4 7 8 7 6 5 7 7 8 6 7 9 11 9 7 7 7 8 10 10 11 11 12 11 12 13 13 10 10 10 13 16 17 18 18 13 9 9 10 11 10 10 9 8 9 10 13 15 16 17 16 15 14 15 14 14 13 12 12 11 12 12 12 12 13 12 12 12 11 12 12 11 11 11
9 16 17 11 6 9 11 10 11 13 13 10 6 7 6 6 4 4 5 3 4 3 4 3 3 6 6 5 7 8 10 11 11 11 11 12 13 13 12 11 10 11 12 13 16 17 19 19 14 11 10 11 12 10 10 9 8 10 14 15 15 16 17 14 14 13 14 17 17 13 13 12 14 14 12 12 11 13 11 12 11 12 12 12 12 12 11
13 13 13 15 12 10 14 15 11 10 11 11 11 8 3 2 3 4 3 1 1 2 2 3 3 7 8 4 5 8 11 12 11 11 11 12 12 14 14 14 12 13 13 15 16 17 17 16 14 12 13 12 10 11 10 9 10 13 16 17 17 17 16 14 14 13 12 12 12 13 13 14 12 12 11 11 13 14 14 12 13 12 12 13 13 12 11
12 11 13 6 3 8 9 8 8 6 6 6 7 4 3 3 3 4 6 5 1 1 1 2 3 4 8 8 4 8 11 12 13 13 13 13 14 15 13 12 13 15 15 14 14 16 17 15 15 16 14 14 10 9 10 11 13 15 17 17 16 17 14 12 13 11 10 12 11 13 13 14 14 15 21 26 20 16 16 21 27 28 23 17 15 11 11
13 15 14 8 7 9 11 12 7 3 2 2 1 2 2 1 2 2 3 7 7 3 1 1 3 5 7 9 7 10 11 12 12 11 13 13 14 16 15 15 16 15 16 15 18 18 18 16 16 15 18 13 15 13 12 12 14 16 16 15 15 16 14 12 13 14 12 13 13 13 13 13 14 15 16 16 23 28 27 27 27 29 30 32 33 30 19
14 16 16 12 7 10 12 9 2 4 2 2 1 2 1 1 1 1 2 2 4 8 6 2 1 5 7 7 6 10 14 13 12 13 13 12 11 12 13 13 15 18 18 19 16 19 17 18 18 19 16 18 15 15 14 13 12 13 14 12 15 14 13 12 14 15 13 15 16 15 14 13 15 12 10 12 14 18 24 27 28 28 29 31 31 30 30
15 15 11 11 10 9 2 2 6 5 3 2 3 1 0 1 1 2 2 2 2 5 8 9 4 3 6 9 6 9 12 15 12 13 15 15 15 14 14 16 15 14 17 16 17 15 18 18 19 16 19 16 16 15 15 13 13 14 15 15 15 15 13 14 14 17 16 15 16 15 15 12 9 11 13 14 16 20 20 20 28 31 29 29 28 28 29
14 15 12 5 3 2 2 3 2 4 3 3 1 1 1 2 2 2 2 3 4 3 5 6 8 6 4 8 8 8 10 13 14 14 13 14 13 12 11 13 15 14 15 15 15 17 17 19 19 17 17 17 14 16 15 15 15 16 17 16 17 15 14 15 16 16 15 15 15 14 11 13 15 16 16 15 16 16 18 19 16 17 23 26 26 26 26
0 2 1 8 10 7 5 3 5 3 2 2 2 2 2 3 3 2 3 4 5 4 4 5 7 7 4 4 8 7 8 15 15 13 10 13 13 14 13 13 15 16 17 16 15 16 19 19 19 19 19 18 17 15 16 14 16 16 15 15 15 17 27 25 15 15 12 13 12 15 14 14 14 16 16 17 16 17 17 17 17 16 11 11 17 23 19
3 2 1 10 13 6 4 1 1 1 2 2 3 4 4 4 3 4 3 3 2 2 3 4 5 6 8 5 6 12 9 9 12 13 13 11 12 11 14 14 15 15 16 15 15 16 16 17 16 17 17 15 15 16 15 16 16 14 15 13 13 13 12 16 13 13 11 13 11 13 15 16 15 16 16 15 16 15 15 17 17 14 11 9 7 10 21
1 2 3 3 2 3 2 1 0 2 2 2 3 4 5 6 5 4 5 4 6 6 5 3 3 4 8 10 8 10 10 10 11 12 12 12 12 13 13 15 13 15 14 15 13 14 14 15 16 17 17 16 14 14 15 15 13 14 14 14 13 11 12 11 13 11 12 11 11 14 16 17 15 15 15 15 15 15 15 16 15 13 12 10 6 6 9
2 2 1 1 3 2 3 2 2 1 1 2 5 4 5 6 8 7 6 7 5 8 7 8 8 8 7 9 8 8 12 13 13 13 13 13 13 14 14 14 13 11 10 12 14 14 16 16 18 18 19 15 16 14 15 14 14 13 15 14 14 12 12 11 11 11 12 12 13 19 17 15 15 15 15 15 16 15 15 14 14 14 13 10 9 10 9
1 0 1 2 3 2 2 1 2 0 1 2 4 4 5 4 5 8 7 7 7 7 8 8 10 10 8 8 9 10 10 11 12 12 13 13 13 13 12 11 11 14 15 15 16 16 16 15 15 16 16 15 15 15 15 13 13 14 12 12 11 19 26 28 23 16 14 14 15 14 13 13 12 11 11 11 11 12 13 13 14 15 14 10 8 7 7
2 3 4 2 1 0 0 1 0 0 1 1 3 4 4 5 7 10 9 9 7 8 11 10 9 10 10 9 10 11 11 12 12 12 12 12 11 11 11 11 13 14 15 17 15 15 14 15 15 15 13 15 15 14 14 14 13 11 13 12 13 12 15 23 16 16 15 15 14 13 13 12 12 12 14 14 13 14 14 14 14 13 12 12 10 8 7
2 0 3 3 2 1 1 1 1 3 3 3 4 3 4 3 5 6 7 8 10 8 9 10 10 9 10 10 11 11 12 12 12 12 11 11 12 12 13 12 12 13 14 14 15 13 14 13 15 13 15 14 16 15 15 14 12 12 11 12 11 12 14 16 17 14 14 14 13 12 11 12 12 12 13 14 14 13 12 12 12 12 12 11 9 9 7
3 4 2 1 2 2 3 4 1 4 3 3 3 4 4 4 5 7 7 7 8 9 9 10 10 10 10 10 11 12 12 12 11 12 13 14 14 14 14 13 13 14 14 15 13 11 10 12 14 14 15 16 15 14 12 14 11 11 12 11 12 11 11 11 12 11 12 13 12 14 12 13 12 12 12 12 12 11 11 10 10 11 11 10 10 8 10
3 2 2 1 1 1 0 2 3 4 5 8 6 5 5 6 6 7 7 7 8 9 9 10 9 9 10 10 11 11 11 11 12 13 14 13 12 13 15 16 15 13 12 13 12 10 12 14 15 15 15 15 15 14 14 13 13 11 12 13 13 12 12 12 11 10 11 12 11 11 11 11 12 12 13 13 12 13 13 14 13 12 10 9 8 7 7
2 0 1 0 0 1 2 3 3 4 5 7 7 7 7 6 6 6 8 8 8 9 9 10 9 9 9 10 10 10 12 11 11 12 13 14 12 12 13 15 16 15 16 16 12 13 17 15 17 23 18 14 14 14 13 13 14 13 13 13 12 11 11 11 10 10 10 9 10 11 10 13 13 12 12 11 11 12 11 11 11 10 8 8 7 6 5
1 1 1 1 2 2 3 3 4 5 6 6 7 7 9 7 8 7 6 8 8 8 9 8 8 9 10 10 11 11 10 10 9 11 12 13 11 13 14 13 12 14 15 16 17 18 17 15 23 29 19 13 13 14 16 22 14 13 12 11 11 11 11 10 10 10 11 10 9 10 11 10 9 10 11 10 10 11 11 10 7 6 6 5 4 4 1
2 1 3 2 3 3 5 5 5 5 6 9 8 7 8 8 7 8 8 7 8 8 8 7 8 9 10 11 10 10 10 10 10 11 12 14 13 14 14 11 12 12 13 14 18 17 14 19 26 20 14 13 13 14 17 24 23 15 10 10 10 10 11 10 10 10 10 9 9 8 8 8 9 9 9 9 10 10 9 7 4 1 1 3 4 4 4
1 1 1 2 2 4 6 6 5 5 5 9 9 8 7 7 7 7 8 8 8 7 7 8 9 10 10 10 10 10 11 10 11 12 12 14 12 10 10 10 9 8 10 14 17 15 15 17 17 15 13 13 16 15 16 20 22 12 10 9 10 9 10 10 10 10 10 9 6 6 7 8 8 9 8 6 3 1 3 5 5 4 4 4 5 6 6
2 2 3 3 4 5 4 6 5 6 6 5 7 9 8 7 7 7 8 8 9 7 8 8 9 9 9 9 9 11 11 12 11 12 14 13 11 9 9 5 3 7 12 16 15 13 19 25 18 12 12 13 13 12 13 18 17 11 10 10 9 9 9 10 9 9 9 8 9 9 7 6 5 5 5 6 6 5 5 5 6 6 5 6 7 6 7
3 3 3 3 5 4 5 6 8 6 5 6 6 7 7 7 7 7 9 9 9 7 8 8 9 10 10 9 10 11 12 11 11 12 11 9 9 9 9 12 11 12 13 15 14 15 17 16 14 13 13 13 12 15 14 16 13 9 10 10 9 9 10 10 9 9 8 8 8 7 7 7 7 7 7 6 7 6 6 6 6 6 6 6 6 6 7
4 3 4 5 5 5 6 6 7 8 6 5 7 6 8 7 7 9 9 8 9 9 9 10 11 11 9 9 9 10 11 11 10 9 6 4 5 6 9 11 12 11 19 19 16 14 12 12 13 11 13 14 13 21 22 12 10 9 9 9 9 9 9 10 9 9 9 9 9 8 8 8 8 7 7 7 7 7 7 7 6 6 6 7 7 7 7
4 4 5 5 5 6 6 6 7 8 7 8 6 7 7 6 7 8 8 8 9 9 10 9 10 9 8 8 8 9 9 8 9 9 6 2 2 3 3 8 11 12 20 15 13 11 11 11 11 11 19 18 15 23 18 10 10 9 9 9 10 9 9 9 9 9 9 9 8 9 9 9 9 8 8 7 7 7 7 7 7 6 6 6 7 7 7
4 5 6 6 6 6 6 6 7 7 7 8 6 6 7 7 7 8 9 9 9 9 9 9 7 7 7 6 7 7 7 7 7 5 6 10 10 2 0 7 9 13 19 13 11 11 11 11 11 19 24 24 24 21 12 9 9 9 9 9 9 9 9 9 9 9 10 9 9 8 8 9 8 8 8 7 7 6 7 7 7 7 7 7 7 7 7
6 6 6 7 6 6 6 6 7 8 7 6 7 8 9 9 10 9 8 9 9 9 8 7 6 6 5 5 5 6 7 7 6 5 6 7 8 10 8 10 11 9 12 17 10 10 10 11 17 25 21 23 21 18 9 9 10 9 9 9 9 9 9 9 9 9 9 9 9 8 9 8 7 7 7 7 8 7 6 6 7 7 7 7 7 7 7
7 6 5 6 6 7 7 7 7 5 6 6 8 10 10 9 9 9 7 9 9 8 6 6 5 5 5 5 6 7 8 7 6 4 5 3 2 7 10 10 9 9 16 17 8 9 9 18 22 22 23 22 20 11 9 9 9 9 9 9 9 10 9 9 9 9 9 9 9 9 8 8 8 8 8 7 8 8 8 9 8 8 7 7 7 8 9
6 6 6 6 7 7 7 6 5 5 6 5 6 8 8 6 6 6 6 8 7 6 5 5 5 5 5 4 5 6 6 5 3 3 3 2 4 6 8 12 11 15 13 9 8 8 9 13 16 21 21 21 17 10 9 9 9 9 9 9 9 9 9 9 9 9 9 8 9 8 8 8 8 8 8 8 8 8 8 8 8 8 8 8 9 10 10
6 7 8 7 9 10 7 5 4 5 6 8 8 7 7 7 7 6 6 5 5 5 4 3 4 4 4 3 4 3 4 2 6 3 0 5 6 6 6 6 9 14 14 10 11 10 16 19 20 19 19 17 11 9 10 9 9 9 9 9 9 9 9 9 9 9 8 8 8 9 9 9 8 8 8 8 7 7 7 7 7 8 8 7 7 7 8
5 8 10 9 7 9 7 5 4 6 6 7 5 6 7 7 6 5 5 4 5 3 3 3 4 3 3 3 3 3 3 3 3 4 5 6 6 6 6 7 10 11 9 7 8 8 12 17 17 17 16 12 8 8 8 8 9 9 9 9 9 9 9 9 8 8 8 9 8 8 8 9 8 8 8 8 8 7 8 8 7 7 6 6 8 7 7
6 5 5 6 6 6 5 4 5 6 6 6 6 6 5 4 4 3 2 2 2 3 3 3 3 2 2 2 3 3 3 2 3 3 4 5 4 5 5 5 6 8 8 6 6 8 9 14 13 13 11 8 8 8 8 8 8 8 8 9 9 8 9 9 8 10 9 9 9 9 8 8 8 8 8 7 7 8 8 7 7 9 12 9 7 7 7
5 5 6 7 6 7 7 7 7 7 6 6 5 4 3 3 3 3 2 2 1 2 3 2 2 1 2 2 2 2 1 2 2 3 3 3 3 4 5 4 5 5 7 6 6 7 7 7 8 9 8 7 7 7 7 8 7 8 8 8 9 8 9 10 9 9 9 8 7 8 8 8 8 8 8 7 7 7 7 7 6 6 6 6 7 6 7
6 6 7 6 6 6 6 6 5 4 4 3 3 3 3 2 2 2 1 3 2 2 2 3 2 0 0 2 2 2 2 3 3 3 3 4 4 3 5 5 4 5 6 5 6 6 6 6 7 8 8 7 7 6 6 7 7 7 7 8 7 8 8 8 8 7 7 8 8 7 8 7 7 8 8 7 7 7 7 7 6 6 5 5 5 6 6
Wind_Direction
273 275 285 304 311 284 292 284 292 286 288 276 259 258 265 267 253 268 274 278 278 272 270 114 76 44 38 102 130 179 203 250 310 345 358 4 354 350 357 351 353 348 347 342 337 341 337 339 345 346 345 348 349 350 354 349 351 348 346 345 347 347 346 347 346 345 343 342 340 338 337 336 336 329 319 303 296 287 270 260 248 241 237 232 231 229 228
288 297 291 296 293 294 285 279 275 275 272 269 268 273 270 259 260 264 271 267 263 278 110 124 99 27 135 161 184 268 266 305 306 330 353 2 349 347 346 339 334 333 328 330 329 330 334 337 342 343 345 346 347 347 347 347 344 346 345 344 343 342 343 340 337 338 338 337 337 334 335 336 332 330 327 322 307 292 286 273 260 251 245 236 233 232 230
282 283 286 286 283 289 286 292 286 268 261 260 262 266 265 266 263 261 260 262 267 78 99 110 110 138 313 121 233 219 234 260 305 333 349 351 344 339 329 328 319 320 324 322 329 331 332 337 336 343 338 339 338 341 343 341 340 338 341 335 340 336 336 333 334 336 339 338 337 337 334 330 331 331 329 326 320 309 292 275 266 259 246 244 237 234 231
278 272 280 299 309 296 283 276 273 265 259 264 258 253 254 255 262 266 274 266 253 115 127 337 125 102 323 203 296 241 225 254 283 331 332 335 334 318 313 313 309 313 318 323 327 331 328 328 332 335 337 335 339 342 340 339 334 332 333 334 332 333 328 329 330 335 336 336 337 335 336 335 332 328 324 324 320 314 304 293 275 260 252 246 243 236 234
269 273 291 328 331 320 292 260 248 255 262 251 258 264 269 262 293 275 262 273 62 142 125 67 310 94 291 159 283 321 280 229 236 275 301 319 315 300 307 311 315 318 318 320 321 318 319 317 318 320 325 329 328 340 336 329 330 330 333 332 330 328 329 328 331 330 332 331 330 329 330 329 328 324 322 319 318 316 309 296 287 272 258 250 245 240 234
282 286 311 38 332 274 258 265 229 207 249 260 261 261 258 273 155 231 64 138 146 135 118 123 272 308 292 276 259 244 256 266 283 284 312 311 293 285 275 278 280 285 288 288 290 292 293 297 297 296 316 315 320 333 327 323 326 326 329 328 329 327 328 333 332 332 329 328 324 323 323 324 324 322 319 314 306 302 301 302 288 274 264 255 249 242 237
260 283 36 307 255 257 276 334 236 165 219 231 247 263 178 186 133 161 120 125 150 203 167 205 218 222 242 251 248 274 240 205 233 261 302 295 296 291 288 281 272 268 271 271 277 287 290 293 300 310 317 324 330 328 328 323 317 319 321 319 321 322 324 327 331 330 328 323 321 320 322 320 320 317 316 313 310 303 299 293 291 282 272 264 253 246 244
13 148 221 244 252 181 274 258 285 298 103 153 79 283 175 253 228 164 150 172 199 212 230 235 228 222 247 261 257 258 249 210 219 257 275 282 274 280 284 288 287 286 282 283 285 286 286 297 298 306 307 322 331 319 321 311 309 311 314 315 313 317 321 325 328 329 326 322 320 322 322 320 316 314 313 311 309 308 302 290 277 272 272 265 261 254 246
228 226 215 241 327 316 295 290 264 150 191 182 147 227 256 181 237 158 172 205 210 240 247 245 245 246 321 281 270 249 230 217 211 219 248 253 264 264 269 267 274 276 274 279 282 284 292 293 294 297 304 321 319 314 314 312 311 309 311 309 310 313 316 320 323 323 321 318 319 321 321 318 316 313 311 308 305 303 296 287 283 275 269 262 259 256 251
203 213 263 275 258 258 283 237 281 305 229 143 245 97 286 162 227 223 225 220 230 233 249 249 252 55 352 288 278 228 204 209 216 232 233 247 254 259 263 266 263 268 273 275 279 279 288 290 283 284 296 314 310 304 298 298 300 301 304 300 303 308 309 316 318 317 314 316 318 318 317 316 314 311 308 303 296 294 290 290 283 272 266 266 258 252 249
247 235 237 241 256 256 140 207 200 263 210 180 244 77 273 172 199 250 191 235 242 232 234 250 184 111 259 264 270 253 213 234 227 232 246 241 249 256 257 257 266 271 271 264 268 275 276 280 282 279 292 308 303 293 294 295 291 292 296 297 305 311 312 314 314 310 308 311 314 312 311 310 311 307 303 299 297 297 285 275 272 272 264 260 260 250 245
232 257 257 254 239 230 239 202 251 224 180 196 64 317 303 85 280 238 195 219 236 240 232 229 188 195 237 260 267 250 218 215 227 225 244 253 255 259 263 263 256 268 281 293 286 279 277 277 281 283 291 293 286 287 290 290 286 284 286 290 298 306 309 308 307 303 304 311 309 308 306 305 305 300 297 296 293 291 287 278 276 270 260 256 257 256 245
233 237 254 255 286 288 196 201 211 206 198 86 234 251 237 204 206 234 189 219 231 225 233 202 197 225 224 248 265 262 241 232 249 249 242 244 246 257 262 264 264 269 270 268 274 278 278 280 281 281 288 289 284 283 285 287 283 287 291 299 307 308 308 306 302 302 308 308 306 302 299 297 297 295 294 294 295 292 288 284 275 270 262 258 255 258 251
234 236 250 253 270 234 188 242 157 171 76 245 232 235 147 250 276 220 200 220 233 227 226 225 220 244 248 257 267 273 267 255 255 256 260 267 269 253 249 259 268 269 277 273 274 276 274 275 274 273 276 278 279 283 284 276 278 291 293 299 305 306 299 297 298 302 303 303 300 297 297 296 297 295 293 293 291 289 285 281 279 274 271 263 259 259 257
353 207 245 265 262 309 114 187 46 221 137 233 188 278 285 239 260 269 247 212 239 221 246 243 246 257 268 269 267 264 265 265 264 267 274 278 279 288 295 297 286 288 294 293 290 286 285 279 260 260 261 271 278 281 277 276 292 289 297 299 300 297 295 296 297 296 296 297 296 297 296 296 295 291 291 291 289 286 282 279 274 274 269 264 259 260 259
239 211 225 212 219 184 205 107 196 237 198 225 299 312 298 299 275 250 246 242 232 228 231 257 265 264 271 276 273 269 265 262 266 270 271 276 284 287 285 282 292 308 286 282 285 288 288 286 277 247 244 269 276 279 275 291 294 289 292 293 293 293 291 289 291 291 292 292 289 289 291 294 293 288 288 287 283 279 278 275 275 272 270 261 256 258 257
137 207 233 240 254 227 214 177 232 246 270 276 270 256 262 283 286 204 212 254 257 240 242 250 259 272 268 268 268 268 267 276 283 289 296 302 300 299 297 295 300 306 286 285 286 287 288 290 289 279 241 258 272 272 279 302 289 295 295 296 295 290 290 289 287 288 288 286 286 286 284 285 286 285 284 285 284 280 274 272 267 265 266 261 253 255 256
241 247 251 266 249 260 273 255 246 259 272 278 277 212 257 243 246 241 239 252 260 270 262 259 263 255 263 271 276 281 295 297 297 303 306 303 300 296 294 294 298 296 293 288 286 285 288 288 290 292 278 253 268 276 293 293 293 293 295 295 293 290 290 289 289 291 291 290 286 285 283 280 277 276 276 279 277 277 273 264 263 261 263 261 255 254 253
279 265 259 234 249 261 262 262 270 273 261 261 271 226 226 253 262 261 245 242 257 262 275 262 268 276 285 299 307 318 314 306 302 301 300 298 296 295 295 297 308 303 296 295 292 292 291 290 293 293 283 278 272 286 294 300 301 298 294 291 289 290 288 289 290 289 289 289 291 289 283 280 273 271 270 270 271 272 268 264 259 256 256 256 255 252 249
226 254 260 262 236 235 255 261 269 274 281 285 260 242 245 247 258 258 277 311 282 282 282 309 310 289 308 328 318 313 301 294 295 296 296 296 298 295 295 300 307 299 293 289 291 294 293 294 299 296 287 284 290 296 299 305 307 304 296 290 288 287 286 287 286 286 284 285 285 283 283 280 281 279 271 266 267 266 267 263 259 257 253 253 251 249 251
247 258 266 264 269 267 263 262 258 258 266 274 276 277 308 346 329 325 327 78 310 30 353 20 355 321 302 309 298 293 292 294 295 298 303 303 299 301 306 309 308 299 300 298 295 293 289 295 300 299 296 294 299 305 307 312 309 301 293 290 287 283 282 285 281 283 279 277 278 279 280 278 265 263 267 272 267 267 260 259 257 257 260 256 250 247 244
261 254 259 251 277 277 267 256 252 256 254 251 271 322 15 37 22 8 337 327 26 70 52 39 338 298 295 301 308 291 290 291 297 306 308 307 305 304 305 308 305 304 301 299 299 299 298 304 303 301 300 301 306 311 310 307 303 293 290 289 286 282 281 279 281 283 281 278 276 277 277 277 278 275 266 266 264 264 269 264 262 261 257 254 252 249 246
255 258 257 247 233 257 263 270 288 73 21 54 336 319 13 60 86 22 4 331 326 336 358 350 310 290 293 301 316 299 294 292 299 304 305 306 309 310 315 315 312 312 311 311 308 302 301 304 301 302 302 303 307 306 303 296 293 287 286 284 281 282 285 281 282 287 284 285 283 279 275 272 275 278 281 272 262 260 261 269 272 269 265 261 258 254 247
261 268 272 273 255 259 270 280 27 100 22 107 115 123 77 83 9 8 18 326 310 310 314 298 302 312 304 305 314 298 297 296 304 308 307 306 305 310 314 315 313 312 309 309 308 307 308 307 303 302 299 297 300 297 293 286 278 275 274 273 278 280 281 280 283 282 281 282 284 280 279 273 267 273 293 309 303 290 287 288 282 272 266 262 258 255 253
247 258 270 271 269 272 297 97 105 100 79 58 133 125 81 359 352 13 337 303 293 303 308 311 323 328 306 305 309 301 300 302 310 315 313 312 313 316 312 310 306 307 307 307 304 301 298 295 294 292 292 291 293 288 284 278 276 273 272 272 274 277 276 278 279 280 280 280 278 275 272 276 295 309 302 295 293 296 290 269 268 271 267 262 258 256 252
246 254 265 295 337 284 103 99 105 78 24 76 78 111 25 27 346 346 307 303 293 290 292 298 306 316 323 310 310 309 304 299 311 321 318 312 312 310 306 306 306 303 298 295 294 294 292 290 290 291 290 291 289 284 281 278 276 274 275 273 272 274 277 277 278 277 277 277 278 281 290 293 290 288 282 277 277 277 280 288 278 258 255 259 259 258 257
16 19 359 292 281 265 77 208 238 37 351 33 70 35 21 12 351 308 302 278 270 267 274 292 298 309 330 316 303 304 312 311 314 308 302 301 302 304 303 300 299 297 296 293 291 291 291 292 291 288 286 286 282 279 278 275 275 275 272 269 269 269 272 278 276 275 270 269 269 271 273 273 273 273 272 270 261 257 261 266 269 272 266 246 245 250 255
84 356 132 219 253 248 184 202 178 262 51 34 18 17 6 343 330 334 324 323 316 323 322 312 321 331 317 317 324 311 309 300 297 304 304 299 299 295 297 294 295 294 293 291 288 290 288 287 284 285 283 281 281 284 281 282 279 275 274 270 269 271 269 269 269 269 266 266 262 263 268 270 270 268 267 270 273 278 283 285 287 283 274 253 239 230 242
75 75 30 45 71 115 109 89 77 66 12 41 46 22 358 347 340 338 331 333 319 320 313 322 338 326 317 315 320 304 303 303 301 300 300 299 297 296 293 292 289 293 291 291 288 288 289 289 292 291 292 294 293 291 290 288 283 283 281 280 277 275 274 270 270 269 268 264 261 266 268 270 269 266 263 260 258 262 258 258 261 268 272 273 261 248 242
137 128 70 89 102 81 112 140 138 107 20 28 17 358 354 350 333 328 322 316 326 316 314 327 327 323 319 305 305 304 306 306 303 300 297 297 294 293 292 293 293 286 280 292 300 304 304 304 304 301 301 303 301 298 295 292 288 284 281 278 277 275 273 271 266 264 263 259 263 266 264 258 255 255 257 255 258 257 265 270 270 269 265 260 247 242 237
172 58 201 145 101 71 114 149 119 105 42 41 17 346 338 343 309 301 308 315 319 312 327 327 317 310 311 303 305 300 295 293 293 293 291 289 289 289 290 301 310 316 315 308 305 304 303 301 298 298 298 298 297 296 294 291 289 287 282 280 277 278 280 281 281 278 274 275 273 271 268 267 268 272 274 279 280 279 273 275 280 282 284 277 260 251 245
88 81 119 141 86 96 141 150 113 342 3 344 357 345 340 333 317 308 310 315 312 319 316 317 312 311 309 309 304 301 298 296 294 292 289 286 288 295 303 309 307 303 301 301 301 302 300 299 296 294 295 296 295 294 294 290 287 284 282 280 278 278 277 278 278 275 274 272 272 270 268 267 262 259 260 258 256 257 258 261 263 262 262 264 262 256 249
111 281 254 217 244 227 216 210 302 300 328 328 313 299 299 279 278 288 293 304 312 313 308 301 304 304 306 305 305 303 301 298 293 290 293 300 306 310 314 310 306 303 300 298 299 298 297 294 295 296 298 296 296 294 292 287 283 281 278 277 275 275 275 274 272 275 272 270 267 263 263 261 260 256 251 252 254 252 250 253 255 256 252 253 254 252 246
173 195 178 160 148 220 266 276 289 297 289 278 293 296 292 289 289 291 296 297 294 297 298 299 300 302 303 306 303 302 302 307 313 313 315 316 316 313 310 309 305 303 297 296 296 298 297 299 302 304 301 298 296 293 289 289 285 281 278 278 279 277 273 271 270 267 265 266 262 264 263 265 268 271 278 279 283 282 275 261 254 253 254 253 253 252 248
101 60 81 84 51 16 262 268 286 291 296 294 294 284 275 281 281 278 281 289 293 296 297 296 298 301 303 301 301 299 303 302 302 307 313 316 311 310 313 313 311 307 306 308 310 307 311 309 308 305 303 301 299 296 296 294 293 288 287 283 282 276 275 269 265 258 255 254 255 259 254 256 256 258 258 260 260 260 261 265 267 259 251 249 248 247 242
96 117 63 306 264 250 235 253 251 256 260 267 272 275 278 273 279 285 289 288 294 292 292 295 297 299 296 296 297 302 300 300 303 309 312 313 309 309 313 315 317 322 323 321 326 329 325 320 315 317 320 312 308 305 303 305 300 300 294 292 287 283 277 269 260 254 248 244 253 246 249 251 252 254 254 257 261 263 261 250 247 248 248 246 247 241 230
145 197 225 259 253 255 262 261 256 262 262 266 276 282 283 283 282 283 289 292 290 285 288 292 295 293 291 290 290 286 287 298 308 310 309 310 311 312 314 313 322 330 330 329 333 333 325 322 322 325 324 314 313 310 312 312 310 309 305 303 300 295 292 285 279 268 262 250 239 248 251 255 254 254 253 255 256 259 267 272 272 257 244 237 227 215 201
271 222 245 246 260 264 261 256 257 254 268 274 268 266 274 284 290 291 285 283 282 284 286 285 281 281 285 287 288 290 296 301 305 306 307 310 314 314 317 330 335 335 335 329 324 323 321 322 325 325 320 317 315 315 314 317 322 320 314 314 309 306 303 303 301 297 291 272 250 242 245 247 251 256 253 250 249 255 259 262 268 257 54 53 55 65 82
273 256 268 285 299 282 277 275 271 258 251 266 277 277 278 281 281 283 282 282 280 283 287 284 284 286 288 289 293 298 300 304 307 308 311 308 309 310 307 312 292 301 311 315 318 319 321 325 327 322 320 318 319 316 320 325 333 330 325 320 319 313 321 319 322 326 331 327 297 258 246 249 249 258 262 268 290 344 32 50 60 57 54 58 64 72 71
282 288 286 285 278 267 268 266 258 259 257 253 270 281 282 286 283 283 283 285 283 282 282 285 288 288 289 288 297 299 303 307 309 311 307 305 302 303 313 297 286 320 324 323 326 323 326 328 328 322 321 322 323 323 328 334 338 335 333 333 330 331 326 329 333 338 343 345 353 358 2 358 7 10 14 19 21 25 33 40 48 50 58 66 67 69 76
289 303 289 272 271 271 272 285 282 273 270 269 265 269 277 278 286 287 282 279 283 283 279 274 279 279 278 290 297 299 301 304 306 304 298 298 315 343 341 327 335 340 334 335 329 329 329 330 328 326 328 331 329 337 335 336 339 339 342 340 340 341 342 343 346 347 347 349 353 355 1 6 13 22 24 27 28 29 27 37 43 47 45 57 60 59 69
276 274 276 279 280 282 281 278 281 284 273 267 271 277 280 277 274 271 275 279 281 280 275 273 266 271 282 293 296 297 296 299 301 297 282 280 322 331 331 322 334 329 330 331 332 331 331 330 330 331 334 336 336 339 342 340 341 343 346 349 352 352 350 349 352 352 355 0 3 8 11 17 19 24 21 31 30 32 31 37 39 41 48 57 64 64 72
272 271 275 277 277 276 273 272 273 279 286 286 285 281 278 277 274 273 274 272 272 272 273 269 270 277 286 290 294 296 297 302 303 303 304 274 279 250 261 305 322 324 329 332 332 332 332 331 334 336 342 344 342 343 345 348 345 348 352 355 357 357 359 359 357 356 3 5 7 11 10 13 20 24 26 29 31 31 33 32 30 34 41 47 56 60 62
286 282 271 270 272 273 278 283 283 289 289 289 285 280 277 276 272 269 270 270 271 267 266 267 272 280 287 290 292 296 300 303 297 311 335 340 347 24 120 331 327 324 331 334 334 335 331 335 334 342 344 348 349 351 349 347 349 352 356 357 358 360 3 5 7 10 11 6 10 10 9 14 19 21 24 25 27 32 42 41 39 38 41 36 40 50 59
277 272 272 271 273 279 279 278 280 281 281 287 292 289 283 276 274 266 256 255 257 260 262 272 278 285 287 286 282 285 287 289 281 315 341 346 344 323 339 337 327 325 328 336 335 333 333 334 338 343 348 350 353 353 354 353 356 358 358 358 0 4 6 6 9 10 12 15 16 15 17 22 22 26 25 23 30 28 30 39 46 46 43 39 42 53 60
273 273 277 284 284 278 271 273 277 287 289 291 293 287 276 262 258 262 254 247 250 253 260 270 274 275 280 282 286 287 282 280 267 229 206 199 244 291 313 319 319 322 333 339 336 335 332 336 342 347 351 355 357 358 358 356 358 359 2 2 6 6 9 8 9 10 12 15 17 22 24 26 26 26 25 28 29 32 33 40 42 38 43 51 57 65 78
282 290 286 279 278 275 277 278 279 280 281 288 277 275 277 269 256 248 246 245 251 264 260 264 266 268 274 281 286 297 310 313 284 208 206 236 278 298 310 319 323 331 338 334 332 330 333 340 345 350 355 356 0 359 356 358 1 4 4 9 7 8 8 12 11 11 11 14 15 18 22 28 31 29 28 32 35 35 28 36 42 45 53 64 72 79 83
291 290 288 284 281 284 292 296 293 276 261 248 247 261 269 273 266 261 262 261 262 260 264 261 256 252 259 272 276 265 264 285 334 313 163 349 332 322 322 328 324 328 331 331 335 334 339 345 348 352 356 359 1 360 358 359 1 3 7 7 9 9 10 12 13 13 12 16 16 23 24 26 28 33 34 37 34 30 34 38 46 43 47 48 45 53 72
276 273 278 283 281 282 280 276 267 260 259 259 255 261 264 261 264 269 270 265 266 271 277 266 259 255 257 261 270 267 261 228 198 264 315 331 321 324 314 319 322 329 337 335 335 332 337 345 348 353 356 358 359 358 1 1 3 7 9 7 8 9 9 13 13 9 15 18 20 24 26 28 27 29 34 36 40 38 40 40 37 36 27 44 65 60 65
287 297 298 294 287 286 272 271 267 256 262 269 264 262 257 267 273 272 259 265 285 319 286 272 262 253 267 280 259 268 260 260 260 269 278 294 304 301 309 313 317 332 339 338 335 336 337 344 350 352 356 354 355 359 2 3 6 9 10 10 13 13 12 8 12 18 19 21 19 23 22 23 22 22 27 36 34 37 41 46 50 45 50 55 45 48 46
305 293 280 276 272 270 260 248 245 260 263 264 262 278 285 282 276 291 275 297 318 300 283 288 260 236 276 283 271 260 286 292 295 302 305 310 305 309 312 320 328 336 346 342 345 339 338 347 346 347 348 351 355 357 2 3 4 5 8 14 11 14 12 13 18 21 21 21 21 23 23 22 22 30 29 30 29 35 32 37 39 45 41 40 39 38 43
272 267 263 264 267 266 269 272 272 273 282 289 294 287 283 280 281 288 289 320 312 281 302 316 309 217 306 312 319 346 340 344 344 332 334 325 322 318 320 334 343 347 350 345 342 338 340 339 341 339 344 350 352 351 349 355 5 9 8 9 10 12 15 15 14 19 20 21 24 28 26 26 27 32 32 30 34 39 41 42 44 41 34 25 26 33 40